View Data : List Evapotranspiration (ETo ) Reports


 
Search Evapotranspiration Reports
Station Fields:
Location:
Date Range:
Start Date:   End Date:
Searched: Report date on 6/26/2019.
Showing 1 - 50 of 118 Records. <Back  Page   Next>
DateTimeStation NumberStation NameGaugeReadingRefill LevelEvap AmtView
6/26/2019  12:00 AM  MN-AA-5  East Bethel 3.1 NE 4.00  0.09   
6/26/2019  5:00 AM  NY-CQ-22  Fredonia 0.8 WNW 1.69  0.14   
6/26/2019  5:09 AM  WI-MC-4  Two Rivers 1.4 N 3.88  0.09   
6/26/2019  5:14 AM  MO-CP-7  Boonville 0.5 ESE 9.65  0.20   
6/26/2019  5:30 AM  AL-MD-90  Huntsville 3.7 ENE 6.12  0.17   
6/26/2019  5:30 AM  IN-TN-1  Atlanta 4.4 W 5.30  0.10   
6/26/2019  6:00 AM  IN-PT-12  Valparaiso 4.3 SW 2.88  0.14   
6/26/2019  6:00 AM  MD-HR-23  Norrisville 0.6 WSW 9.01  0.14   
6/26/2019  6:00 AM  MD-MG-54  Germantown 4.6 NNE 1.66  0.15   
6/26/2019  6:00 AM  NH-CS-7  Lancaster 0.5 N 4.08  1.30   
6/26/2019  6:00 AM  WI-LN-2  Merrill 7.0 W 7.40  0.20   
6/26/2019  6:20 AM  TX-BXR-168  Hollywood Park 4.3 ENE 3.58  0.00   
6/26/2019  6:25 AM  TX-KN-118  Boerne 1.6 E 3.35  0.15   
6/26/2019  6:30 AM  CO-GF-47  Carbondale 0.5 W 6.90  0.18   
6/26/2019  6:30 AM  IL-WN-2  Roscoe 1.6 ESE 5.61  0.11   
6/26/2019  6:30 AM  OH-DR-1  Bradford 2.3 NW 5.28  0.19   
6/26/2019  6:40 AM  NM-BR-183  Sandia Park 3.6 ESE 6.29  0.34   
6/26/2019  7:00 AM  AZ-PN-50  Saddlebrooke 1.5 SW 9.41  0.28   
6/26/2019  7:00 AM  CA-HM-5  Mckinleyville 7.3 ESE 5.79  0.11   
6/26/2019  7:00 AM  CA-SD-12  Poway 3.2NE 10.31  0.07   
6/26/2019  7:00 AM  CA-SD-132  Descanso 3.7N 4.40  0.18   
6/26/2019  7:00 AM  CA-SN-100  Glen Ellen 1.9 NNW 4.71  0.11   
6/26/2019  7:00 AM  CO-BO-57  Nederland 5.8 E 0.20  0.10   
6/26/2019  7:00 AM  CO-EP-24  Black Forest 2.1 SSE 4.70  0.21   
6/26/2019  7:00 AM  CO-EP-188  Colorado Springs 3.7 ENE 3.98  0.22   
6/26/2019  7:00 AM  CO-GN-18  Crested Butte 6.2 N 1.72 0.00 0.00   
6/26/2019  7:00 AM  CO-LR-623  Fort Collins 5.4 WSW 1.89  0.21   
6/26/2019  7:00 AM  CO-LG-6  Sterling 3.7 NNE 5.30  0.29   
6/26/2019  7:00 AM  FL-MR-66  The Villages 3.7 NNW 4.35  0.20   
6/26/2019  7:00 AM  GA-FY-28  Fayetteville 2.1 NNE 0.11  0.11   
6/26/2019  7:00 AM  IL-CP-1  Homer 2.0 N 5.10  0.11   
6/26/2019  7:00 AM  IL-GY-1  Carbon Hill 3.1 N 6.38  0.18   
6/26/2019  7:00 AM  IL-KN-67  St. Charles 6.0 NW 2.93  0.12   
6/26/2019  7:00 AM  IL-WF-14  El Paso 5.2 NNW 0.53  0.06   
6/26/2019  7:00 AM  IN-BN-53  Zionsville 4.3 NNW 1.85  0.12   
6/26/2019  7:00 AM  IN-HR-5  Milltown 5.7 SSE 8.18  0.18   
6/26/2019  7:00 AM  IN-MR-13  Speedway 6.2 SSW 7.80  0.20   
6/26/2019  7:00 AM  IN-OW-9  Spencer 7.0 S 6.14  0.11   
6/26/2019  7:00 AM  IN-PT-133  Valparaiso 2.2 WNW 7.41  0.26   
6/26/2019  7:00 AM  IA-CL-4  Murray 1.7 W 3.53  0.22   
6/26/2019  7:00 AM  IA-LN-7  Central City 6.7 W 6.49  0.17   
6/26/2019  7:00 AM  IA-TY-2  New Market 4.7 N 6.82  0.13   
6/26/2019  7:00 AM  KS-MP-42  McPherson 2.9 E 0.95  0.22   
6/26/2019  7:00 AM  KS-SG-111  Wichita 5.9 WSW 7.22  0.65   
6/26/2019  7:00 AM  KY-ME-8  Harrodsburg 10.8 NW 5.05  0.14   
6/26/2019  7:00 AM  ME-LN-1  Newcastle 2.1 SW 4.39  0.07   
6/26/2019  7:00 AM  MD-MG-114  Silver Spring 1.4 ENE 1.67  0.09   
6/26/2019  7:00 AM  MA-BR-23  Attleboro 0.9 ENE 5.61  0.00   
6/26/2019  7:00 AM  MA-MD-119  Watertown 1.1 W 5.44  0.06   
6/26/2019  7:00 AM  MI-KN-14  Grandville 1.3 WSW 3.82  0.16